Time,TemperatureF,DewpointF,PressureIn,WindDirection,WindDirectionDegrees,WindSpeedMPH,WindSpeedGustMPH,Humidity,HourlyPrecipIn,Conditions,Clouds,dailyrainin,SoftwareType,DateUTC
2013-08-03 00:00:00,66.2,37.0,29.90,ENE,64,0.0,0.0,34,0.00,RA,,0.00,WeatherDisplay:10.37,2013-08-03 04:00:00,
2013-08-03 00:01:00,66.2,37.0,29.90,ENE,64,0.0,0.0,34,0.00,RA,,0.00,WeatherDisplay:10.37,2013-08-03 04:01:00,
2013-08-03 00:02:00,66.2,37.0,29.90,ENE,64,0.0,0.0,34,0.00,RA,,0.00,WeatherDisplay:10.37,2013-08-03 04:02:00,
2013-08-03 00:07:00,66.4,37.1,29.90,ESE,108,0.0,0.0,34,0.00,RA,,0.00,WeatherDisplay:10.37,2013-08-03 04:07:00,
2013-08-03 00:12:00,66.4,37.1,29.90,ESE,108,0.0,0.0,34,0.00,CLR,,0.00,WeatherDisplay:10.37,2013-08-03 04:12:00,
2013-08-03 00:17:00,66.4,37.1,29.90,ESE,108,0.0,0.0,34,0.00,CLR,,0.00,WeatherDisplay:10.37,2013-08-03 04:17:00,
2013-08-03 00:22:00,66.6,37.3,29.90,ESE,108,0.0,0.0,34,0.00,CLR,,0.00,WeatherDisplay:10.37,2013-08-03 04:22:00,
2013-08-03 00:27:00,66.6,37.3,29.90,ESE,108,0.0,0.0,34,0.00,CLR,,0.00,WeatherDisplay:10.37,2013-08-03 04:27:00,
2013-08-03 00:32:00,66.4,37.1,29.90,ESE,108,0.0,0.0,34,0.00,CLR,,0.00,WeatherDisplay:10.37,2013-08-03 04:32:00,
2013-08-03 00:37:00,66.4,37.1,29.90,ESE,108,0.0,0.0,34,0.00,CLR,,0.00,WeatherDisplay:10.37,2013-08-03 04:37:00,
2013-08-03 00:42:00,66.2,37.0,29.90,ESE,108,0.0,0.0,34,0.00,CLR,,0.00,WeatherDisplay:10.37,2013-08-03 04:42:00,
2013-08-03 00:47:00,66.2,37.0,29.90,ESE,108,0.0,0.0,34,0.00,CLR,,0.00,WeatherDisplay:10.37,2013-08-03 04:47:00,
2013-08-03 00:52:00,66.0,37.6,29.90,ESE,108,0.0,0.0,35,0.00,CLR,,0.00,WeatherDisplay:10.37,2013-08-03 04:52:00,
2013-08-03 00:57:00,66.0,37.6,29.90,ESE,108,0.0,0.0,35,0.00,CLR,,0.00,WeatherDisplay:10.37,2013-08-03 04:57:00,
2013-08-03 01:02:00,66.0,38.3,29.90,ESE,108,0.0,0.0,36,0.00,CLR,,0.00,WeatherDisplay:10.37,2013-08-03 05:02:00,
2013-08-03 01:07:00,66.0,38.3,29.90,ESE,108,0.0,0.0,36,0.00,CLR,,0.00,WeatherDisplay:10.37,2013-08-03 05:07:00,
2013-08-03 01:12:00,66.0,39.0,29.90,ESE,108,0.0,0.0,37,0.00,CLR,,0.00,WeatherDisplay:10.37,2013-08-03 05:12:00,
2013-08-03 01:17:00,65.8,38.8,29.90,ESE,108,0.0,0.0,37,0.00,CLR,,0.00,WeatherDisplay:10.37,2013-08-03 05:17:00,
2013-08-03 01:22:00,65.8,38.8,29.90,ESE,108,0.0,0.0,37,0.00,CLR,,0.00,WeatherDisplay:10.37,2013-08-03 05:22:00,
2013-08-03 01:27:00,65.7,38.7,29.90,ESE,108,0.0,0.0,37,0.00,CLR,,0.00,WeatherDisplay:10.37,2013-08-03 05:27:00,
2013-08-03 01:32:00,65.7,38.7,29.90,ESE,108,0.0,0.0,37,0.00,CLR,,0.00,WeatherDisplay:10.37,2013-08-03 05:32:00,
2013-08-03 01:37:00,65.7,38.7,29.90,ESE,108,0.0,0.0,37,0.00,CLR,,0.00,WeatherDisplay:10.37,2013-08-03 05:37:00,
2013-08-03 01:42:00,65.7,38.7,29.90,ESE,108,0.0,0.0,37,0.00,CLR,,0.00,WeatherDisplay:10.37,2013-08-03 05:42:00,
2013-08-03 01:47:00,65.7,38.7,29.87,ESE,108,0.0,0.0,37,0.00,CLR,,0.00,WeatherDisplay:10.37,2013-08-03 05:47:00,
2013-08-03 01:52:00,65.7,38.7,29.87,ESE,108,0.0,0.0,37,0.00,CLR,,0.00,WeatherDisplay:10.37,2013-08-03 05:52:00,
2013-08-03 01:57:00,65.7,38.7,29.87,ESE,108,0.0,0.0,37,0.00,CLR,,0.00,WeatherDisplay:10.37,2013-08-03 05:57:00,
2013-08-03 02:02:00,65.5,38.5,29.87,ESE,108,0.0,0.0,37,0.00,CLR,,0.00,WeatherDisplay:10.37,2013-08-03 06:02:00,
2013-08-03 02:07:00,65.3,38.3,29.87,ESE,108,0.0,0.0,37,0.00,CLR,,0.00,WeatherDisplay:10.37,2013-08-03 06:07:00,
2013-08-03 02:12:00,65.3,38.3,29.87,ESE,108,0.0,0.0,37,0.00,CLR,,0.00,WeatherDisplay:10.37,2013-08-03 06:12:00,
2013-08-03 02:17:00,64.9,38.0,29.87,ESE,108,0.0,0.0,37,0.00,CLR,,0.00,WeatherDisplay:10.37,2013-08-03 06:17:00,
2013-08-03 02:22:00,64.6,37.7,29.87,ESE,108,0.0,0.0,37,0.00,CLR,,0.00,WeatherDisplay:10.37,2013-08-03 06:22:00,
2013-08-03 02:28:00,64.4,37.5,29.87,ESE,108,0.0,0.0,37,0.00,CLR,,0.00,WeatherDisplay:10.37,2013-08-03 06:28:00,
2013-08-03 02:33:00,64.0,37.9,29.84,ESE,108,0.0,0.0,38,0.00,CLR,,0.00,WeatherDisplay:10.37,2013-08-03 06:33:00,
2013-08-03 02:38:00,63.9,38.4,29.84,ESE,108,0.0,0.0,39,0.00,CLR,,0.00,WeatherDisplay:10.37,2013-08-03 06:38:00,
2013-08-03 02:43:00,63.5,38.7,29.84,ESE,108,0.0,0.0,40,0.00,CLR,,0.00,WeatherDisplay:10.37,2013-08-03 06:43:00,
2013-08-03 02:48:00,63.3,38.6,29.84,ESE,108,0.0,0.0,40,0.00,CLR,,0.00,WeatherDisplay:10.37,2013-08-03 06:48:00,
2013-08-03 02:53:00,63.1,39.0,29.84,ESE,108,0.0,0.0,41,0.00,CLR,,0.00,WeatherDisplay:10.37,2013-08-03 06:53:00,
2013-08-03 02:58:00,63.1,40.9,29.84,ESE,108,0.0,0.0,44,0.00,CLR,,0.00,WeatherDisplay:10.37,2013-08-03 06:58:00,
2013-08-03 03:03:00,63.0,40.7,29.84,ESE,108,0.0,0.0,44,0.00,CLR,,0.00,WeatherDisplay:10.37,2013-08-03 07:03:00,
2013-08-03 03:08:00,63.0,40.7,29.84,ESE,108,0.0,0.0,44,0.00,CLR,,0.00,WeatherDisplay:10.37,2013-08-03 07:08:00,
2013-08-03 03:13:00,63.1,41.4,29.84,ESE,108,0.0,0.0,45,0.00,CLR,,0.00,WeatherDisplay:10.37,2013-08-03 07:13:00,
2013-08-03 03:18:00,62.8,41.1,29.84,ESE,108,0.0,0.0,45,0.00,CLR,,0.00,WeatherDisplay:10.37,2013-08-03 07:18:00,
2013-08-03 03:23:00,62.6,40.9,29.84,ESE,108,0.0,0.0,45,0.00,CLR,,0.00,WeatherDisplay:10.37,2013-08-03 07:23:00,
2013-08-03 03:28:00,62.6,40.9,29.84,ESE,108,0.0,0.0,45,0.00,CLR,,0.00,WeatherDisplay:10.37,2013-08-03 07:28:00,
2013-08-03 03:33:00,62.6,41.5,29.84,ESE,108,0.0,0.0,46,0.00,CLR,,0.00,WeatherDisplay:10.37,2013-08-03 07:33:00,
2013-08-03 03:38:00,62.4,41.4,29.84,ESE,108,0.0,0.0,46,0.00,CLR,,0.00,WeatherDisplay:10.37,2013-08-03 07:38:00,
2013-08-03 03:43:00,62.4,41.4,29.84,ESE,108,0.0,0.0,46,0.00,CLR,,0.00,WeatherDisplay:10.37,2013-08-03 07:43:00,
2013-08-03 03:48:00,62.4,41.9,29.84,ESE,108,0.0,0.0,47,0.00,CLR,,0.00,WeatherDisplay:10.37,2013-08-03 07:48:00,
2013-08-03 03:53:00,62.6,42.1,29.84,ESE,108,0.0,0.0,47,0.00,CLR,,0.00,WeatherDisplay:10.37,2013-08-03 07:53:00,
2013-08-03 03:58:00,62.8,42.2,29.84,ESE,108,0.0,0.0,47,0.00,CLR,,0.00,WeatherDisplay:10.37,2013-08-03 07:58:00,
2013-08-03 04:03:00,63.0,43.0,29.84,ESE,108,0.0,0.0,48,0.00,CLR,,0.00,WeatherDisplay:10.37,2013-08-03 08:03:00,
2013-08-03 04:08:00,62.6,42.6,29.84,ESE,108,0.0,0.0,48,0.00,CLR,,0.00,WeatherDisplay:10.37,2013-08-03 08:08:00,
2013-08-03 04:13:00,62.4,42.5,29.84,ESE,108,0.0,0.0,48,0.00,CLR,,0.00,WeatherDisplay:10.37,2013-08-03 08:13:00,
2013-08-03 04:18:00,62.4,42.5,29.84,ESE,108,0.0,0.0,48,0.00,CLR,,0.00,WeatherDisplay:10.37,2013-08-03 08:18:00,
2013-08-03 04:23:00,62.4,42.5,29.84,ESE,108,0.0,0.0,48,0.00,CLR,,0.00,WeatherDisplay:10.37,2013-08-03 08:23:00,
2013-08-03 04:28:00,62.4,42.5,29.84,ESE,108,0.0,0.0,48,0.00,CLR,,0.00,WeatherDisplay:10.37,2013-08-03 08:28:00,
2013-08-03 04:33:00,62.2,42.3,29.84,ESE,108,0.0,0.0,48,0.00,CLR,,0.00,WeatherDisplay:10.37,2013-08-03 08:33:00,
2013-08-03 04:38:00,62.2,42.3,29.84,ESE,108,0.0,0.0,48,0.00,CLR,,0.00,WeatherDisplay:10.37,2013-08-03 08:38:00,
2013-08-03 04:43:00,62.2,42.3,29.84,ESE,108,0.0,0.0,48,0.00,CLR,,0.00,WeatherDisplay:10.37,2013-08-03 08:43:00,
2013-08-03 04:48:00,62.2,42.3,29.84,ESE,108,0.0,0.0,48,0.00,CLR,,0.00,WeatherDisplay:10.37,2013-08-03 08:48:00,
2013-08-03 04:53:00,62.1,42.1,29.84,ESE,108,0.0,0.0,48,0.00,CLR,,0.00,WeatherDisplay:10.37,2013-08-03 08:53:00,
2013-08-03 04:58:00,62.2,42.3,29.84,ESE,108,0.0,0.0,48,0.00,CLR,,0.00,WeatherDisplay:10.37,2013-08-03 08:58:00,
2013-08-03 05:03:00,62.2,42.8,29.84,ESE,108,0.0,0.0,49,0.00,CLR,,0.00,WeatherDisplay:10.37,2013-08-03 09:03:00,
2013-08-03 05:08:00,62.1,42.7,29.84,ESE,108,0.0,0.0,49,0.00,CLR,,0.00,WeatherDisplay:10.37,2013-08-03 09:08:00,
2013-08-03 05:13:00,62.1,42.7,29.84,ESE,108,0.0,0.0,49,0.00,CLR,,0.00,WeatherDisplay:10.37,2013-08-03 09:13:00,
2013-08-03 05:18:00,62.4,43.0,29.84,ESE,108,0.0,0.0,49,0.00,CLR,,0.00,WeatherDisplay:10.37,2013-08-03 09:18:00,
2013-08-03 05:23:00,62.2,43.4,29.84,ESE,108,0.0,0.0,50,0.00,CLR,,0.00,WeatherDisplay:10.37,2013-08-03 09:23:00,
2013-08-03 05:28:00,62.2,42.8,29.84,ESE,108,0.0,0.0,49,0.00,CLR,,0.00,WeatherDisplay:10.37,2013-08-03 09:28:00,
2013-08-03 05:33:00,62.2,43.4,29.84,ESE,108,0.0,0.0,50,0.00,CLR,,0.00,WeatherDisplay:10.37,2013-08-03 09:33:00,
2013-08-03 05:38:00,62.2,43.4,29.84,ESE,108,0.0,0.0,50,0.00,CLR,,0.00,WeatherDisplay:10.37,2013-08-03 09:38:00,
2013-08-03 05:43:00,62.2,43.4,29.84,ESE,108,0.0,0.0,50,0.00,CLR,,0.00,WeatherDisplay:10.37,2013-08-03 09:43:00,
2013-08-03 05:48:00,62.2,43.4,29.84,ESE,108,0.0,0.0,50,0.00,CLR,,0.00,WeatherDisplay:10.37,2013-08-03 09:48:00,
2013-08-03 05:53:00,62.2,43.4,29.84,ESE,108,0.0,0.0,50,0.00,CLR,,0.00,WeatherDisplay:10.37,2013-08-03 09:53:00,
2013-08-03 05:58:00,62.4,43.5,29.84,ESE,108,0.0,0.0,50,0.00,CLR,,0.00,WeatherDisplay:10.37,2013-08-03 09:58:00,
2013-08-03 06:03:00,62.6,43.7,29.84,ESE,108,0.0,0.0,50,0.00,CLR,,0.00,WeatherDisplay:10.37,2013-08-03 10:03:00,
2013-08-03 06:08:00,62.6,43.7,29.84,ESE,108,0.0,0.0,50,0.00,CLR,,0.00,WeatherDisplay:10.37,2013-08-03 10:08:00,
2013-08-03 06:13:00,62.8,43.9,29.84,ESE,108,0.0,0.0,50,0.00,CLR,,0.00,WeatherDisplay:10.37,2013-08-03 10:13:00,
2013-08-03 06:18:00,63.0,44.0,29.84,ESE,108,0.0,0.0,50,0.00,CLR,,0.00,WeatherDisplay:10.37,2013-08-03 10:18:00,
2013-08-03 06:23:00,63.0,44.0,29.84,ESE,108,0.0,0.0,50,0.00,CLR,,0.00,WeatherDisplay:10.37,2013-08-03 10:23:00,
2013-08-03 06:28:00,63.1,44.2,29.84,ESE,108,0.0,0.0,50,0.00,CLR,,0.00,WeatherDisplay:10.37,2013-08-03 10:28:00,
2013-08-03 06:33:00,63.1,43.7,29.84,ESE,108,0.0,0.0,49,0.00,CLR,,0.00,WeatherDisplay:10.37,2013-08-03 10:33:00,
2013-08-03 06:38:00,63.1,44.2,29.84,ESE,108,0.0,0.0,50,0.00,CLR,,0.00,WeatherDisplay:10.37,2013-08-03 10:38:00,
2013-08-03 06:43:00,63.3,44.4,29.84,ESE,108,0.0,0.0,50,0.00,CLR,,0.00,WeatherDisplay:10.37,2013-08-03 10:43:00,
2013-08-03 06:48:00,63.5,44.5,29.84,ESE,108,0.0,0.0,50,0.00,CLR,,0.00,WeatherDisplay:10.37,2013-08-03 10:48:00,
2013-08-03 06:53:00,63.5,44.5,29.84,ESE,108,0.0,0.0,50,0.00,CLR,,0.00,WeatherDisplay:10.37,2013-08-03 10:53:00,
2013-08-03 06:58:00,63.7,44.2,29.84,ESE,108,0.0,0.0,49,0.00,CLR,,0.00,WeatherDisplay:10.37,2013-08-03 10:58:00,
2013-08-03 07:03:00,63.9,44.3,29.84,ESE,108,0.0,0.0,49,0.00,CLR,,0.00,WeatherDisplay:10.37,2013-08-03 11:03:00,
2013-08-03 07:08:00,64.0,44.5,29.84,ESE,108,0.0,0.0,49,0.00,CLR,,0.00,WeatherDisplay:10.37,2013-08-03 11:08:00,
2013-08-03 07:13:00,64.2,44.6,29.84,ESE,108,0.0,0.0,49,0.00,CLR,,0.00,WeatherDisplay:10.37,2013-08-03 11:13:00,
2013-08-03 07:18:00,64.4,44.8,29.84,ESE,105,0.0,0.0,49,0.00,CLR,,0.00,WeatherDisplay:10.37,2013-08-03 11:18:00,
2013-08-03 07:23:00,64.6,45.0,29.84,ESE,105,0.0,0.0,49,0.00,CLR,,0.00,WeatherDisplay:10.37,2013-08-03 11:23:00,
2013-08-03 07:28:00,64.9,44.8,29.84,ESE,105,0.0,0.0,48,0.00,CLR,,0.00,WeatherDisplay:10.37,2013-08-03 11:28:00,
2013-08-03 07:33:00,65.3,45.1,29.84,ESE,105,0.0,0.0,48,0.00,CLR,,0.00,WeatherDisplay:10.37,2013-08-03 11:33:00,
2013-08-03 07:38:00,65.5,45.3,29.84,ESE,105,0.0,0.0,48,0.00,CLR,,0.00,WeatherDisplay:10.37,2013-08-03 11:38:00,
2013-08-03 07:43:00,65.8,45.6,29.84,ESE,105,0.0,0.0,48,0.00,CLR,,0.00,WeatherDisplay:10.37,2013-08-03 11:43:00,
2013-08-03 07:48:00,65.8,45.0,29.84,ESE,105,0.0,0.0,47,0.00,CLR,,0.00,WeatherDisplay:10.37,2013-08-03 11:48:00,
2013-08-03 07:53:00,66.2,44.8,29.84,ESE,105,0.0,0.0,46,0.00,CLR,,0.00,WeatherDisplay:10.37,2013-08-03 11:53:00,
2013-08-03 07:58:00,66.6,45.1,29.84,ESE,105,0.0,0.0,46,0.00,CLR,,0.00,WeatherDisplay:10.37,2013-08-03 11:58:00,
2013-08-03 08:03:00,66.6,44.5,29.84,ESE,105,0.0,0.0,45,0.00,CLR,,0.00,WeatherDisplay:10.37,2013-08-03 12:03:00,
2013-08-03 08:08:00,66.9,44.9,29.84,ESE,105,0.0,0.0,45,0.00,CLR,,0.00,WeatherDisplay:10.37,2013-08-03 12:08:00,
2013-08-03 08:13:00,67.1,44.4,29.84,ESE,105,0.0,0.0,44,0.00,CLR,,0.00,WeatherDisplay:10.37,2013-08-03 12:13:00,
2013-08-03 08:18:00,67.3,43.4,29.84,North,5,0.0,0.0,42,0.00,CLR,,0.00,WeatherDisplay:10.37,2013-08-03 12:18:00,
2013-08-03 08:23:00,67.6,42.4,29.84,North,5,0.0,0.0,40,0.00,CLR,,0.00,WeatherDisplay:10.37,2013-08-03 12:23:00,
2013-08-03 08:28:00,68.0,41.4,29.84,North,5,0.0,0.0,38,0.00,CLR,,0.00,WeatherDisplay:10.37,2013-08-03 12:28:00,
2013-08-03 08:33:00,68.0,39.3,29.84,NNE,29,3.5,0.0,35,0.00,CLR,,0.00,WeatherDisplay:10.37,2013-08-03 12:33:00,
2013-08-03 08:38:00,68.0,39.3,29.84,WSW,255,2.3,0.0,35,0.00,CLR,,0.00,WeatherDisplay:10.37,2013-08-03 12:38:00,
2013-08-03 08:43:00,68.2,39.5,29.84,WSW,246,3.5,0.0,35,0.00,CLR,,0.00,WeatherDisplay:10.37,2013-08-03 12:43:00,
2013-08-03 08:48:00,68.5,40.5,29.84,WNW,287,2.7,0.0,36,0.00,CLR,,0.00,WeatherDisplay:10.37,2013-08-03 12:48:00,
2013-08-03 08:53:00,68.7,39.2,29.84,NNW,331,0.0,0.0,34,0.00,CLR,,0.00,WeatherDisplay:10.37,2013-08-03 12:53:00,
2013-08-03 08:58:00,68.9,38.6,29.84,NNW,331,2.3,0.0,33,0.00,CLR,,0.00,WeatherDisplay:10.37,2013-08-03 12:58:00,
2013-08-03 09:03:00,69.1,38.8,29.84,WNW,286,4.6,0.0,33,0.00,CLR,,0.00,WeatherDisplay:10.37,2013-08-03 13:03:00,
2013-08-03 09:04:00,69.1,38.8,29.84,WNW,286,0.0,0.0,33,0.00,CLR,,0.00,WeatherDisplay:10.37,2013-08-03 13:04:00,
2013-08-03 09:09:00,69.3,39.7,29.84,WNW,296,3.5,3.5,34,0.00,CLR,,0.00,WeatherDisplay:10.37,2013-08-03 13:09:00,
2013-08-03 09:14:00,69.3,38.9,29.84,WNW,296,0.0,0.0,33,0.00,CLR,,0.00,WeatherDisplay:10.37,2013-08-03 13:14:00,
2013-08-03 09:19:00,69.4,39.1,29.84,North,357,0.0,0.0,33,0.00,CLR,,0.00,WeatherDisplay:10.37,2013-08-03 13:19:00,
2013-08-03 09:24:00,69.6,39.2,29.84,North,357,2.3,0.0,33,0.00,CLR,,0.00,WeatherDisplay:10.37,2013-08-03 13:24:00,
2013-08-03 09:29:00,69.8,39.4,29.84,NNW,338,3.5,0.0,33,0.00,CLR,,0.00,WeatherDisplay:10.37,2013-08-03 13:29:00,
2013-08-03 09:34:00,70.2,38.9,29.84,WNW,300,4.6,4.6,32,0.00,CLR,,0.00,WeatherDisplay:10.37,2013-08-03 13:34:00,
2013-08-03 09:39:00,70.3,39.1,29.84,NW,314,3.1,3.1,32,0.00,CLR,,0.00,WeatherDisplay:10.37,2013-08-03 13:39:00,
2013-08-03 09:44:00,70.7,39.4,29.84,NW,314,0.0,0.0,32,0.00,CLR,,0.00,WeatherDisplay:10.37,2013-08-03 13:44:00,
2013-08-03 09:49:00,71.1,39.7,29.84,NW,322,3.6,0.0,32,0.00,CLR,,0.00,WeatherDisplay:10.37,2013-08-03 13:49:00,
2013-08-03 09:54:00,71.2,39.9,29.84,NNW,346,3.5,0.0,32,0.00,CLR,,0.00,WeatherDisplay:10.37,2013-08-03 13:54:00,
2013-08-03 09:59:00,71.6,40.2,29.84,NW,309,3.5,0.0,32,0.00,CLR,,0.00,WeatherDisplay:10.37,2013-08-03 13:59:00,
2013-08-03 10:04:00,71.2,39.9,29.84,WNW,286,2.3,2.3,32,0.00,CLR,,0.00,WeatherDisplay:10.37,2013-08-03 14:04:00,
2013-08-03 10:09:00,71.6,39.3,29.84,WNW,296,3.5,3.5,31,0.00,CLR,,0.00,WeatherDisplay:10.37,2013-08-03 14:09:00,
2013-08-03 10:14:00,71.2,39.9,29.84,SW,226,3.5,3.5,32,0.00,CLR,,0.00,WeatherDisplay:10.37,2013-08-03 14:14:00,
2013-08-03 10:19:00,71.2,37.3,29.84,WNW,299,5.8,5.8,29,0.00,CLR,,0.00,WeatherDisplay:10.37,2013-08-03 14:19:00,
2013-08-03 10:24:00,71.4,40.0,29.84,WNW,289,0.0,0.0,32,0.00,CLR,,0.00,WeatherDisplay:10.37,2013-08-03 14:24:00,
2013-08-03 10:29:00,71.4,40.0,29.84,West,280,3.5,0.0,32,0.00,CLR,,0.00,WeatherDisplay:10.37,2013-08-03 14:29:00,
2013-08-03 10:34:00,71.6,39.3,29.84,WNW,291,2.3,0.0,31,0.00,CLR,,0.00,WeatherDisplay:10.37,2013-08-03 14:34:00,
2013-08-03 10:39:00,71.8,37.8,29.84,WNW,293,2.7,0.0,29,0.00,CLR,,0.00,WeatherDisplay:10.37,2013-08-03 14:39:00,
2013-08-03 10:44:00,72.0,38.0,29.84,NW,324,3.5,3.5,29,0.00,CLR,,0.00,WeatherDisplay:10.37,2013-08-03 14:44:00,
2013-08-03 10:49:00,71.8,37.8,29.84,WNW,297,3.5,0.0,29,0.00,CLR,,0.00,WeatherDisplay:10.37,2013-08-03 14:49:00,
2013-08-03 10:54:00,72.1,38.1,29.84,WSW,238,3.5,0.0,29,0.00,CLR,,0.00,WeatherDisplay:10.37,2013-08-03 14:54:00,
2013-08-03 10:59:00,72.3,38.3,29.84,West,278,2.3,0.0,29,0.00,CLR,,0.00,WeatherDisplay:10.37,2013-08-03 14:59:00,
2013-08-03 11:04:00,73.0,38.9,29.84,NW,304,4.9,4.9,29,0.00,CLR,,0.00,WeatherDisplay:10.37,2013-08-03 15:04:00,
2013-08-03 11:09:00,73.2,36.3,29.84,North,4,3.5,3.5,26,0.00,CLR,,0.00,WeatherDisplay:10.37,2013-08-03 15:09:00,
2013-08-03 11:14:00,73.6,36.6,29.84,WSW,254,5.8,5.8,26,0.00,CLR,,0.00,WeatherDisplay:10.37,2013-08-03 15:14:00,
2013-08-03 11:19:00,73.8,36.7,29.84,WNW,291,3.5,3.5,26,0.00,CLR,,0.00,WeatherDisplay:10.37,2013-08-03 15:19:00,
2013-08-03 11:24:00,73.8,36.7,29.84,WNW,290,3.5,3.5,26,0.00,CLR,,0.00,WeatherDisplay:10.37,2013-08-03 15:24:00,
2013-08-03 11:29:00,74.3,37.2,29.84,NW,310,2.3,2.3,26,0.00,CLR,,0.00,WeatherDisplay:10.37,2013-08-03 15:29:00,
2013-08-03 11:34:00,74.5,37.3,29.84,WNW,292,3.6,0.0,26,0.00,CLR,,0.00,WeatherDisplay:10.37,2013-08-03 15:34:00,
2013-08-03 11:39:00,74.8,37.6,29.84,WNW,286,3.5,3.5,26,0.00,CLR,,0.00,WeatherDisplay:10.37,2013-08-03 15:39:00,
2013-08-03 11:44:00,74.8,37.6,29.84,West,276,2.3,2.3,26,0.00,CLR,,0.00,WeatherDisplay:10.37,2013-08-03 15:44:00,
2013-08-03 11:49:00,75.9,37.6,29.84,WSW,249,5.8,5.8,25,0.00,CLR,,0.00,WeatherDisplay:10.37,2013-08-03 15:49:00,
2013-08-03 11:54:00,77.0,38.5,29.84,West,281,4.6,4.6,25,0.00,CLR,,0.00,WeatherDisplay:10.37,2013-08-03 15:54:00,
2013-08-03 11:59:00,78.3,39.5,29.84,West,276,3.5,3.5,25,0.00,CLR,,0.00,WeatherDisplay:10.37,2013-08-03 15:59:00,
2013-08-03 12:04:00,81.9,39.3,29.84,WNW,292,3.5,3.5,22,0.00,CLR,,0.00,WeatherDisplay:10.37,2013-08-03 16:04:00,
2013-08-03 12:09:00,81.3,38.8,29.84,WNW,286,3.6,0.0,22,0.00,CLR,,0.00,WeatherDisplay:10.37,2013-08-03 16:09:00,
2013-08-03 12:14:00,82.0,39.4,29.84,NNW,337,3.6,0.0,22,0.00,CLR,,0.00,WeatherDisplay:10.37,2013-08-03 16:14:00,
2013-08-03 12:19:00,81.1,38.7,29.84,West,279,3.5,0.0,22,0.00,CLR,,0.00,WeatherDisplay:10.37,2013-08-03 16:19:00,
2013-08-03 12:24:00,79.5,37.3,29.84,NW,313,2.3,0.0,22,0.00,CLR,,0.00,WeatherDisplay:10.37,2013-08-03 16:24:00,
2013-08-03 12:29:00,81.5,39.0,29.81,West,265,4.6,4.6,22,0.00,CLR,,0.00,WeatherDisplay:10.37,2013-08-03 16:29:00,
2013-08-03 12:34:00,82.6,38.7,29.81,WNW,289,3.5,3.5,21,0.00,CLR,,0.00,WeatherDisplay:10.37,2013-08-03 16:34:00,
2013-08-03 12:39:00,82.6,38.7,29.81,North,357,3.5,3.5,21,0.00,CLR,,0.00,WeatherDisplay:10.37,2013-08-03 16:39:00,
2013-08-03 12:44:00,81.1,38.7,29.81,NNE,23,3.5,3.5,22,0.00,CLR,,0.00,WeatherDisplay:10.37,2013-08-03 16:44:00,
2013-08-03 12:49:00,79.5,37.3,29.81,WNW,286,0.0,0.0,22,0.00,CLR,,0.00,WeatherDisplay:10.37,2013-08-03 16:49:00,
2013-08-03 12:54:00,77.5,36.8,29.81,West,265,2.7,0.0,23,0.00,CLR,,0.00,WeatherDisplay:10.37,2013-08-03 16:54:00,
2013-08-03 12:59:00,78.1,37.3,29.84,NW,317,3.5,3.5,23,0.00,CLR,,0.00,WeatherDisplay:10.37,2013-08-03 16:59:00,
2013-08-03 13:04:00,79.0,36.9,29.84,WNW,298,2.3,0.0,22,0.00,CLR,,0.00,WeatherDisplay:10.37,2013-08-03 17:04:00,
2013-08-03 13:09:00,82.4,38.5,29.84,WNW,292,3.5,3.5,21,0.00,CLR,,0.00,WeatherDisplay:10.37,2013-08-03 17:09:00,
2013-08-03 13:14:00,82.2,39.6,29.81,SW,216,4.6,4.6,22,0.00,CLR,,0.00,WeatherDisplay:10.37,2013-08-03 17:14:00,
2013-08-03 13:19:00,79.5,37.3,29.81,West,277,3.5,3.5,22,0.00,CLR,,0.00,WeatherDisplay:10.37,2013-08-03 17:19:00,
2013-08-03 13:24:00,79.2,37.0,29.81,WSW,253,3.5,3.5,22,0.00,CLR,,0.00,WeatherDisplay:10.37,2013-08-03 17:24:00,
2013-08-03 13:29:00,79.2,37.0,29.81,West,271,3.5,3.5,22,0.00,CLR,,0.00,WeatherDisplay:10.37,2013-08-03 17:29:00,
2013-08-03 13:34:00,79.2,37.0,29.81,West,260,3.5,3.5,22,0.00,CLR,,0.00,WeatherDisplay:10.37,2013-08-03 17:34:00,
2013-08-03 13:39:00,79.7,37.5,29.81,NW,319,2.3,0.0,22,0.00,CLR,,0.00,WeatherDisplay:10.37,2013-08-03 17:39:00,
2013-08-03 13:44:00,79.5,37.3,29.81,West,263,3.5,3.5,22,0.00,CLR,,0.00,WeatherDisplay:10.37,2013-08-03 17:44:00,
2013-08-03 13:49:00,77.9,37.1,29.81,SSW,204,3.5,3.5,23,0.00,CLR,,0.00,WeatherDisplay:10.37,2013-08-03 17:49:00,
2013-08-03 13:54:00,78.1,37.3,29.81,WNW,296,3.5,3.5,23,0.00,CLR,,0.00,WeatherDisplay:10.37,2013-08-03 17:54:00,
2013-08-03 13:59:00,78.3,37.4,29.81,WSW,254,3.5,3.5,23,0.00,CLR,,0.00,WeatherDisplay:10.37,2013-08-03 17:59:00,
2013-08-03 14:04:00,79.3,37.2,29.81,WSW,257,3.5,3.5,22,0.00,CLR,,0.00,WeatherDisplay:10.37,2013-08-03 18:04:00,
2013-08-03 14:09:00,80.4,38.1,29.81,West,270,3.5,3.5,22,0.00,CLR,,0.00,WeatherDisplay:10.37,2013-08-03 18:09:00,
2013-08-03 14:14:00,79.2,37.0,29.81,NW,304,4.9,4.9,22,0.00,CLR,,0.00,WeatherDisplay:10.37,2013-08-03 18:14:00,
2013-08-03 14:19:00,78.8,36.7,29.81,WSW,256,2.3,0.0,22,0.00,CLR,,0.00,WeatherDisplay:10.37,2013-08-03 18:19:00,
2013-08-03 14:24:00,79.0,36.9,29.81,NW,321,3.5,0.0,22,0.00,CLR,,0.00,WeatherDisplay:10.37,2013-08-03 18:24:00,
2013-08-03 14:29:00,78.1,37.3,29.81,SW,231,3.5,0.0,23,0.00,CLR,,0.00,WeatherDisplay:10.37,2013-08-03 18:29:00,
2013-08-03 14:34:00,78.1,37.3,29.81,NNW,335,0.0,0.0,23,0.00,CLR,,0.00,WeatherDisplay:10.37,2013-08-03 18:34:00,
2013-08-03 14:35:00,78.1,37.3,29.81,WNW,301,3.5,3.5,23,0.00,CLR,,0.00,WeatherDisplay:10.37,2013-08-03 18:35:00,
2013-08-03 14:40:00,78.1,37.3,29.81,West,278,2.3,0.0,23,0.00,CLR,,0.00,WeatherDisplay:10.37,2013-08-03 18:40:00,
2013-08-03 14:45:00,77.9,37.1,29.81,WSW,239,3.5,3.5,23,0.00,CLR,,0.00,WeatherDisplay:10.37,2013-08-03 18:45:00,
2013-08-03 14:50:00,77.5,36.8,29.81,West,277,2.3,0.0,23,0.00,CLR,,0.00,WeatherDisplay:10.37,2013-08-03 18:50:00,
2013-08-03 14:55:00,77.5,36.8,29.81,West,274,0.0,0.0,23,0.00,CLR,,0.00,WeatherDisplay:10.37,2013-08-03 18:55:00,
2013-08-03 15:00:00,77.9,37.1,29.81,North,357,3.5,3.6,23,0.00,CLR,,0.00,WeatherDisplay:10.37,2013-08-03 19:00:00,
2013-08-03 15:05:00,78.1,37.3,29.81,NW,308,2.3,0.0,23,0.00,CLR,,0.00,WeatherDisplay:10.37,2013-08-03 19:05:00,
2013-08-03 15:10:00,78.4,37.6,29.81,WNW,294,4.9,4.9,23,0.00,CLR,,0.00,WeatherDisplay:10.37,2013-08-03 19:10:00,
2013-08-03 15:15:00,78.6,37.7,29.81,WNW,297,3.5,3.5,23,0.00,CLR,,0.00,WeatherDisplay:10.37,2013-08-03 19:15:00,
2013-08-03 15:20:00,78.1,37.3,29.81,WNW,297,0.0,0.0,23,0.00,CLR,,0.00,WeatherDisplay:10.37,2013-08-03 19:20:00,
2013-08-03 15:25:00,77.9,37.1,29.81,WNW,298,2.3,0.0,23,0.00,CLR,,0.00,WeatherDisplay:10.37,2013-08-03 19:25:00,
2013-08-03 15:30:00,76.8,36.2,29.81,ENE,73,3.5,3.5,23,0.00,CLR,,0.00,WeatherDisplay:10.37,2013-08-03 19:30:00,
2013-08-03 15:36:00,76.6,36.0,29.81,WSW,240,3.5,3.5,23,0.00,CLR,,0.00,WeatherDisplay:10.37,2013-08-03 19:36:00,
2013-08-03 15:38:00,76.5,35.9,29.81,NW,305,3.5,0.0,23,0.00,CLR,,0.00,WeatherDisplay:10.37,2013-08-03 19:38:00,
2013-08-03 15:43:00,77.0,36.3,29.81,WSW,239,3.5,3.5,23,0.00,CLR,,0.00,WeatherDisplay:10.37,2013-08-03 19:43:00,
2013-08-03 15:48:00,77.9,37.1,29.81,NNW,329,3.5,3.5,23,0.00,CLR,,0.00,WeatherDisplay:10.37,2013-08-03 19:48:00,
2013-08-03 15:53:00,78.4,37.6,29.81,ESE,106,3.5,3.5,23,0.00,CLR,,0.00,WeatherDisplay:10.37,2013-08-03 19:53:00,
2013-08-03 15:58:00,78.3,37.4,29.81,NW,311,5.8,5.8,23,0.00,CLR,,0.00,WeatherDisplay:10.37,2013-08-03 19:58:00,
2013-08-03 16:03:00,77.9,37.1,29.81,West,267,3.5,3.5,23,0.00,CLR,,0.00,WeatherDisplay:10.37,2013-08-03 20:03:00,
2013-08-03 16:08:00,78.1,37.3,29.81,WSW,249,3.5,0.0,23,0.00,CLR,,0.00,WeatherDisplay:10.37,2013-08-03 20:08:00,
2013-08-03 16:13:00,78.1,37.3,29.81,West,262,3.5,3.6,23,0.00,CLR,,0.00,WeatherDisplay:10.37,2013-08-03 20:13:00,
2013-08-03 16:18:00,78.3,37.4,29.81,ENE,72,3.5,0.0,23,0.00,CLR,,0.00,WeatherDisplay:10.37,2013-08-03 20:18:00,
2013-08-03 16:23:00,78.3,37.4,29.81,WSW,251,3.5,3.5,23,0.00,CLR,,0.00,WeatherDisplay:10.37,2013-08-03 20:23:00,
2013-08-03 16:28:00,78.3,37.4,29.81,WSW,250,0.0,0.0,23,0.00,CLR,,0.00,WeatherDisplay:10.37,2013-08-03 20:28:00,
2013-08-03 16:33:00,78.4,37.6,29.81,SSW,213,4.0,4.0,23,0.00,CLR,,0.00,WeatherDisplay:10.37,2013-08-03 20:33:00,
2013-08-03 16:39:00,78.4,37.6,29.81,West,262,3.5,0.0,23,0.00,CLR,,0.00,WeatherDisplay:10.37,2013-08-03 20:39:00,
2013-08-03 16:44:00,78.4,37.6,29.81,WSW,254,3.1,0.0,23,0.00,CLR,,0.00,WeatherDisplay:10.37,2013-08-03 20:44:00,
2013-08-03 16:49:00,78.4,37.6,29.78,WSW,243,3.5,3.5,23,0.00,CLR,,0.00,WeatherDisplay:10.37,2013-08-03 20:49:00,
2013-08-03 16:54:00,78.4,37.6,29.78,West,262,3.5,3.5,23,0.00,CLR,,0.00,WeatherDisplay:10.37,2013-08-03 20:54:00,
2013-08-03 16:59:00,78.3,37.4,29.78,WNW,283,3.5,3.5,23,0.00,CLR,,0.00,WeatherDisplay:10.37,2013-08-03 20:59:00,
2013-08-03 17:04:00,77.7,37.0,29.78,NE,39,3.5,0.0,23,0.00,CLR,,0.00,WeatherDisplay:10.37,2013-08-03 21:04:00,
2013-08-03 17:09:00,77.2,36.5,29.78,WNW,292,0.0,0.0,23,0.00,CLR,,0.00,WeatherDisplay:10.37,2013-08-03 21:09:00,
2013-08-03 17:14:00,77.5,36.8,29.78,NNE,33,0.0,0.0,23,0.00,CLR,,0.00,WeatherDisplay:10.37,2013-08-03 21:14:00,
2013-08-03 17:19:00,77.9,37.1,29.78,WNW,290,3.5,0.0,23,0.00,CLR,,0.00,WeatherDisplay:10.37,2013-08-03 21:19:00,
2013-08-03 17:24:00,77.9,37.1,29.78,NW,306,2.3,2.3,23,0.00,CLR,,0.00,WeatherDisplay:10.37,2013-08-03 21:24:00,
2013-08-03 17:29:00,77.9,37.1,29.78,WNW,285,3.5,0.0,23,0.00,CLR,,0.00,WeatherDisplay:10.37,2013-08-03 21:29:00,
2013-08-03 17:34:00,77.9,37.1,29.78,NNW,329,0.0,0.0,23,0.00,CLR,,0.00,WeatherDisplay:10.37,2013-08-03 21:34:00,
2013-08-03 17:39:00,77.9,37.1,29.78,ENE,68,0.0,0.0,23,0.00,CLR,,0.00,WeatherDisplay:10.37,2013-08-03 21:39:00,
2013-08-03 17:44:00,77.5,36.8,29.78,SE,124,2.3,0.0,23,0.00,CLR,,0.00,WeatherDisplay:10.37,2013-08-03 21:44:00,
2013-08-03 17:49:00,77.2,36.5,29.78,South,176,2.3,0.0,23,0.00,CLR,,0.00,WeatherDisplay:10.37,2013-08-03 21:49:00,
2013-08-03 17:54:00,77.2,36.5,29.78,West,277,2.3,0.0,23,0.00,CLR,,0.00,WeatherDisplay:10.37,2013-08-03 21:54:00,
2013-08-03 17:59:00,77.2,36.5,29.78,NW,313,3.5,3.5,23,0.00,CLR,,0.00,WeatherDisplay:10.37,2013-08-03 21:59:00,
2013-08-03 18:04:00,77.0,36.3,29.81,NW,313,0.0,0.0,23,0.00,CLR,,0.00,WeatherDisplay:10.37,2013-08-03 22:04:00,
2013-08-03 18:09:00,77.0,36.3,29.81,NW,313,0.0,0.0,23,0.00,CLR,,0.00,WeatherDisplay:10.37,2013-08-03 22:09:00,
2013-08-03 18:14:00,77.2,36.5,29.81,WNW,289,3.5,0.0,23,0.00,CLR,,0.00,WeatherDisplay:10.37,2013-08-03 22:14:00,
2013-08-03 18:19:00,77.4,36.6,29.81,West,262,0.0,0.0,23,0.00,CLR,,0.00,WeatherDisplay:10.37,2013-08-03 22:19:00,
2013-08-03 18:24:00,77.5,36.8,29.81,West,267,2.3,2.3,23,0.00,CLR,,0.00,WeatherDisplay:10.37,2013-08-03 22:24:00,
2013-08-03 18:29:00,77.5,36.8,29.81,WNW,300,0.0,0.0,23,0.00,CLR,,0.00,WeatherDisplay:10.37,2013-08-03 22:29:00,
2013-08-03 18:34:00,77.4,36.6,29.81,NW,313,3.5,3.5,23,0.00,CLR,,0.00,WeatherDisplay:10.37,2013-08-03 22:34:00,
2013-08-03 18:39:00,77.0,36.3,29.81,NW,308,2.3,0.0,23,0.00,CLR,,0.00,WeatherDisplay:10.37,2013-08-03 22:39:00,
2013-08-03 18:44:00,76.8,36.2,29.81,West,277,0.0,0.0,23,0.00,CLR,,0.00,WeatherDisplay:10.37,2013-08-03 22:44:00,
2013-08-03 18:49:00,76.5,35.9,29.81,West,276,0.0,0.0,23,0.00,CLR,,0.00,WeatherDisplay:10.37,2013-08-03 22:49:00,
2013-08-03 18:54:00,76.1,35.6,29.81,WNW,293,2.7,0.0,23,0.00,CLR,,0.00,WeatherDisplay:10.37,2013-08-03 22:54:00,
2013-08-03 18:59:00,75.7,35.3,29.81,WNW,293,0.0,0.0,23,0.00,CLR,,0.00,WeatherDisplay:10.37,2013-08-03 22:59:00,
2013-08-03 19:04:00,75.4,35.0,29.81,WNW,293,0.0,0.0,23,0.00,CLR,,0.00,WeatherDisplay:10.37,2013-08-03 23:04:00,
2013-08-03 19:09:00,74.7,34.4,29.81,WNW,293,0.0,0.0,23,0.00,CLR,,0.00,WeatherDisplay:10.37,2013-08-03 23:09:00,
2013-08-03 19:14:00,74.5,34.2,29.81,WNW,293,0.0,0.0,23,0.00,CLR,,0.00,WeatherDisplay:10.37,2013-08-03 23:14:00,
2013-08-03 19:19:00,74.1,33.9,29.81,WNW,293,0.0,0.0,23,0.00,CLR,,0.00,WeatherDisplay:10.37,2013-08-03 23:19:00,
2013-08-03 19:24:00,73.6,33.5,29.81,WNW,293,0.0,0.0,23,0.00,CLR,,0.00,WeatherDisplay:10.37,2013-08-03 23:24:00,
2013-08-03 19:29:00,72.9,33.9,29.81,WNW,293,0.0,0.0,24,0.00,CLR,,0.00,WeatherDisplay:10.37,2013-08-03 23:29:00,
2013-08-03 19:34:00,72.3,33.5,29.81,WNW,293,0.0,0.0,24,0.00,CLR,,0.00,WeatherDisplay:10.37,2013-08-03 23:34:00,
2013-08-03 19:39:00,71.8,33.0,29.81,WNW,293,0.0,0.0,24,0.00,CLR,,0.00,WeatherDisplay:10.37,2013-08-03 23:39:00,
2013-08-03 19:44:00,71.4,32.7,29.81,WNW,293,0.0,0.0,24,0.00,CLR,,0.00,WeatherDisplay:10.37,2013-08-03 23:44:00,
2013-08-03 19:49:00,70.9,32.3,29.81,WNW,293,0.0,0.0,24,0.00,CLR,,0.00,WeatherDisplay:10.37,2013-08-03 23:49:00,
2013-08-03 19:54:00,70.3,31.8,29.81,WNW,293,0.0,0.0,24,0.00,CLR,,0.00,WeatherDisplay:10.37,2013-08-03 23:54:00,
2013-08-03 19:59:00,70.0,31.5,29.81,WNW,293,0.0,0.0,24,0.00,CLR,,0.00,WeatherDisplay:10.37,2013-08-03 23:59:00,
2013-08-03 20:04:00,69.6,32.2,29.81,WNW,293,0.0,0.0,25,0.00,CLR,,0.00,WeatherDisplay:10.37,2013-08-04 00:04:00,
2013-08-03 20:09:00,69.4,34.0,29.81,WNW,293,0.0,0.0,27,0.00,CLR,,0.00,WeatherDisplay:10.37,2013-08-04 00:09:00,
2013-08-03 20:14:00,69.3,33.8,29.81,WNW,293,0.0,0.0,27,0.00,CLR,,0.00,WeatherDisplay:10.37,2013-08-04 00:14:00,
2013-08-03 20:19:00,69.1,33.7,29.81,WNW,293,2.3,0.0,27,0.00,CLR,,0.00,WeatherDisplay:10.37,2013-08-04 00:19:00,
2013-08-03 20:24:00,68.9,33.5,29.81,WNW,293,0.0,0.0,27,0.00,CLR,,0.00,WeatherDisplay:10.37,2013-08-04 00:24:00,
2013-08-03 20:29:00,68.9,33.5,29.81,WNW,293,2.3,0.0,27,0.00,CLR,,0.00,WeatherDisplay:10.37,2013-08-04 00:29:00,
2013-08-03 20:34:00,68.9,33.5,29.84,WNW,293,0.0,0.0,27,0.00,CLR,,0.00,WeatherDisplay:10.37,2013-08-04 00:34:00,
2013-08-03 20:39:00,69.1,31.8,29.84,WNW,293,3.5,0.0,25,0.00,CLR,,0.00,WeatherDisplay:10.37,2013-08-04 00:39:00,
2013-08-03 20:44:00,69.3,31.9,29.84,WNW,296,2.3,2.3,25,0.00,CLR,,0.00,WeatherDisplay:10.37,2013-08-04 00:44:00,
2013-08-03 20:49:00,69.4,32.1,29.84,WNW,295,3.5,3.5,25,0.00,CLR,,0.00,WeatherDisplay:10.37,2013-08-04 00:49:00,
2013-08-03 20:54:00,69.3,31.9,29.84,WNW,295,0.0,0.0,25,0.00,CLR,,0.00,WeatherDisplay:10.37,2013-08-04 00:54:00,
2013-08-03 20:59:00,69.3,31.9,29.84,WNW,295,0.0,0.0,25,0.00,CLR,,0.00,WeatherDisplay:10.37,2013-08-04 00:59:00,
2013-08-03 21:04:00,68.9,31.6,29.84,WNW,295,0.0,0.0,25,0.00,CLR,,0.00,WeatherDisplay:10.37,2013-08-04 01:04:00,
2013-08-03 21:09:00,68.5,31.3,29.84,WNW,295,0.0,0.0,25,0.00,CLR,,0.00,WeatherDisplay:10.37,2013-08-04 01:09:00,
2013-08-03 21:14:00,68.4,31.1,29.84,WNW,295,0.0,0.0,25,0.00,CLR,,0.00,WeatherDisplay:10.37,2013-08-04 01:14:00,
2013-08-03 21:19:00,68.0,30.8,29.84,WNW,295,0.0,0.0,25,0.00,CLR,,0.00,WeatherDisplay:10.37,2013-08-04 01:19:00,
2013-08-03 21:24:00,67.6,30.5,29.84,WNW,295,0.0,0.0,25,0.00,CLR,,0.00,WeatherDisplay:10.37,2013-08-04 01:24:00,
2013-08-03 21:29:00,67.5,30.4,29.84,WNW,295,0.0,0.0,25,0.00,CLR,,0.00,WeatherDisplay:10.37,2013-08-04 01:29:00,
2013-08-03 21:34:00,67.1,30.1,29.84,WNW,295,0.0,0.0,25,0.00,CLR,,0.00,WeatherDisplay:10.37,2013-08-04 01:34:00,
2013-08-03 21:39:00,66.7,29.8,29.84,WNW,295,0.0,0.0,25,0.00,CLR,,0.00,WeatherDisplay:10.37,2013-08-04 01:39:00,
2013-08-03 21:44:00,66.4,29.5,29.84,WNW,295,0.0,0.0,25,0.00,CLR,,0.00,WeatherDisplay:10.37,2013-08-04 01:44:00,
2013-08-03 21:49:00,66.0,32.0,29.84,WNW,295,0.0,0.0,28,0.00,CLR,,0.00,WeatherDisplay:10.37,2013-08-04 01:49:00,
2013-08-03 21:54:00,65.7,31.6,29.84,WNW,295,0.0,0.0,28,0.00,CLR,,0.00,WeatherDisplay:10.37,2013-08-04 01:54:00,
2013-08-03 21:59:00,65.5,31.5,29.84,WNW,295,0.0,0.0,28,0.00,CLR,,0.00,WeatherDisplay:10.37,2013-08-04 01:59:00,
2013-08-03 22:04:00,65.1,31.2,29.84,WNW,294,0.0,0.0,28,0.00,CLR,,0.00,WeatherDisplay:10.37,2013-08-04 02:04:00,
2013-08-03 22:09:00,65.1,31.2,29.84,WNW,294,0.0,0.0,28,0.00,CLR,,0.00,WeatherDisplay:10.37,2013-08-04 02:09:00,
2013-08-03 22:14:00,64.8,30.9,29.84,WNW,294,0.0,0.0,28,0.00,CLR,,0.00,WeatherDisplay:10.37,2013-08-04 02:14:00,
2013-08-03 22:19:00,64.8,30.9,29.84,WNW,294,0.0,0.0,28,0.00,CLR,,0.00,WeatherDisplay:10.37,2013-08-04 02:19:00,
2013-08-03 22:24:00,64.6,32.4,29.84,WNW,294,0.0,0.0,30,0.00,CLR,,0.00,WeatherDisplay:10.37,2013-08-04 02:24:00,
2013-08-03 22:29:00,64.6,32.4,29.87,WNW,294,0.0,0.0,30,0.00,CLR,,0.00,WeatherDisplay:10.37,2013-08-04 02:29:00,
2013-08-03 22:34:00,64.4,32.3,29.87,WNW,294,0.0,0.0,30,0.00,CLR,,0.00,WeatherDisplay:10.37,2013-08-04 02:34:00,
2013-08-03 22:39:00,64.2,32.9,29.87,WNW,294,0.0,0.0,31,0.00,CLR,,0.00,WeatherDisplay:10.37,2013-08-04 02:39:00,
2013-08-03 22:44:00,63.9,34.2,29.87,WNW,294,0.0,0.0,33,0.00,CLR,,0.00,WeatherDisplay:10.37,2013-08-04 02:44:00,
2013-08-03 22:49:00,63.9,34.2,29.87,WNW,294,0.0,0.0,33,0.00,CLR,,0.00,WeatherDisplay:10.37,2013-08-04 02:49:00,
2013-08-03 22:54:00,63.7,32.5,29.87,WNW,294,0.0,0.0,31,0.00,CLR,,0.00,WeatherDisplay:10.37,2013-08-04 02:54:00,
2013-08-03 22:59:00,63.5,32.3,29.87,WNW,294,0.0,0.0,31,0.00,CLR,,0.00,WeatherDisplay:10.37,2013-08-04 02:59:00,
2013-08-03 23:04:00,63.5,33.9,29.87,WNW,294,0.0,0.0,33,0.00,CLR,,0.00,WeatherDisplay:10.37,2013-08-04 03:04:00,
2013-08-03 23:09:00,63.1,33.5,29.87,WNW,294,0.0,0.0,33,0.00,CLR,,0.00,WeatherDisplay:10.37,2013-08-04 03:09:00,
2013-08-03 23:14:00,63.1,33.5,29.87,WNW,294,0.0,0.0,33,0.00,CLR,,0.00,WeatherDisplay:10.37,2013-08-04 03:14:00,
2013-08-03 23:19:00,63.0,33.4,29.87,WNW,294,0.0,0.0,33,0.00,CLR,,0.00,WeatherDisplay:10.37,2013-08-04 03:19:00,
2013-08-03 23:24:00,63.0,33.4,29.87,WNW,294,0.0,0.0,33,0.00,CLR,,0.00,WeatherDisplay:10.37,2013-08-04 03:24:00,
2013-08-03 23:29:00,62.6,33.8,29.87,WNW,294,0.0,0.0,34,0.00,CLR,,0.00,WeatherDisplay:10.37,2013-08-04 03:29:00,
2013-08-03 23:34:00,62.4,33.7,29.87,WNW,294,0.0,0.0,34,0.00,CLR,,0.00,WeatherDisplay:10.37,2013-08-04 03:34:00,
2013-08-03 23:39:00,62.2,34.2,29.87,WNW,294,0.0,0.0,35,0.00,CLR,,0.00,WeatherDisplay:10.37,2013-08-04 03:39:00,
2013-08-03 23:44:00,62.1,34.1,29.87,WNW,294,0.0,0.0,35,0.00,CLR,,0.00,WeatherDisplay:10.37,2013-08-04 03:44:00,
2013-08-03 23:49:00,62.1,36.1,29.87,WNW,294,0.0,0.0,38,0.00,CLR,,0.00,WeatherDisplay:10.37,2013-08-04 03:49:00,
2013-08-03 23:54:00,61.7,35.1,29.87,WNW,294,0.0,0.0,37,0.00,CLR,,0.00,WeatherDisplay:10.37,2013-08-04 03:54:00,
2013-08-03 23:59:00,61.5,35.0,29.87,WNW,294,0.0,0.0,37,0.00,CLR,,0.00,WeatherDisplay:10.37,2013-08-04 03:59:00,